Time,TemperatureF,DewpointF,PressureIn,WindDirection,WindDirectionDegrees,WindSpeedMPH,WindSpeedGustMPH,Humidity,HourlyPrecipIn,Conditions,Clouds,dailyrainin,SoftwareType,DateUTC
2013-03-01 00:06:00,36.3,7.9,30.14,SSE,157,0.0,-999.0,30,-99.99,,,0.00,Acu-Link.com,2013-03-01 07:06:00,
2013-03-01 00:22:00,35.1,8.2,30.15,NW,315,0.0,-999.0,32,-99.99,,,0.00,Acu-Link.com,2013-03-01 07:22:00,
2013-03-01 00:37:00,33.3,7.3,30.14,North,0,2.7,-999.0,33,-99.99,,,0.00,Acu-Link.com,2013-03-01 07:37:00,
2013-03-01 00:52:00,32.5,6.7,30.15,West,270,0.0,-999.0,33,-99.99,,,0.00,Acu-Link.com,2013-03-01 07:52:00,
2013-03-01 01:07:00,31.5,6.4,30.15,West,270,1.6,-999.0,34,-99.99,,,0.00,Acu-Link.com,2013-03-01 08:07:00,
2013-03-01 01:22:00,32.5,7.3,30.15,South,180,0.0,-999.0,34,-99.99,,,0.00,Acu-Link.com,2013-03-01 08:22:00,
2013-03-01 01:38:00,29.8,6.2,30.15,WNW,292,0.0,-999.0,36,-99.99,,,0.00,Acu-Link.com,2013-03-01 08:38:00,
2013-03-01 01:53:00,29.7,6.6,30.14,West,270,2.2,-999.0,37,-99.99,,,0.00,Acu-Link.com,2013-03-01 08:53:00,
2013-03-01 02:19:00,29.7,6.6,30.15,WSW,247,1.6,-999.0,37,-99.99,,,0.00,Acu-Link.com,2013-03-01 09:19:00,
2013-03-01 02:34:00,29.8,6.8,30.15,West,270,0.0,-999.0,37,-99.99,,,0.00,Acu-Link.com,2013-03-01 09:34:00,
2013-03-01 02:50:00,29.3,6.9,30.15,WNW,292,0.0,-999.0,38,-99.99,,,0.00,Acu-Link.com,2013-03-01 09:50:00,
2013-03-01 03:05:00,29.7,7.8,30.15,East,90,0.0,-999.0,39,-99.99,,,0.00,Acu-Link.com,2013-03-01 10:05:00,
2013-03-01 03:20:00,30.9,8.9,30.16,East,90,4.3,-999.0,39,-99.99,,,0.00,Acu-Link.com,2013-03-01 10:20:00,
2013-03-01 03:35:00,32.9,10.1,30.16,NE,45,6.3,-999.0,38,-99.99,,,0.00,Acu-Link.com,2013-03-01 10:35:00,
2013-03-01 03:50:00,33.6,10.2,30.15,NW,315,2.7,-999.0,37,-99.99,,,0.00,Acu-Link.com,2013-03-01 10:50:00,
2013-03-01 04:06:00,32.4,9.6,30.16,West,270,2.7,-999.0,38,-99.99,,,0.00,Acu-Link.com,2013-03-01 11:06:00,
2013-03-01 04:21:00,31.1,9.1,30.16,West,270,0.0,-999.0,39,-99.99,,,0.00,Acu-Link.com,2013-03-01 11:21:00,
2013-03-01 04:36:00,29.7,8.9,30.16,West,270,2.2,-999.0,41,-99.99,,,0.00,Acu-Link.com,2013-03-01 11:36:00,
2013-03-01 04:51:00,28.8,8.1,30.16,West,270,2.2,-999.0,41,-99.99,,,0.00,Acu-Link.com,2013-03-01 11:51:00,
2013-03-01 05:06:00,28.4,8.3,30.17,WSW,247,1.6,-999.0,42,-99.99,,,0.00,Acu-Link.com,2013-03-01 12:06:00,
2013-03-01 05:22:00,27.5,8.0,30.16,WSW,247,0.0,-999.0,43,-99.99,,,0.00,Acu-Link.com,2013-03-01 12:22:00,
2013-03-01 05:37:00,27.7,9.6,30.17,East,90,3.8,-999.0,46,-99.99,,,0.00,Acu-Link.com,2013-03-01 12:37:00,
2013-03-01 05:52:00,29.5,10.3,30.17,NNW,337,1.6,-999.0,44,-99.99,,,0.00,Acu-Link.com,2013-03-01 12:52:00,
2013-03-01 06:07:00,29.5,10.8,30.17,North,0,2.2,-999.0,45,-99.99,,,0.00,Acu-Link.com,2013-03-01 13:07:00,
2013-03-01 06:22:00,30.9,11.6,30.18,North,0,4.3,-999.0,44,-99.99,,,0.00,Acu-Link.com,2013-03-01 13:22:00,
2013-03-01 06:38:00,30.9,11.6,30.18,WNW,292,3.8,-999.0,44,-99.99,,,0.00,Acu-Link.com,2013-03-01 13:38:00,
2013-03-01 06:53:00,29.8,10.6,30.19,NNW,337,2.2,-999.0,44,-99.99,,,0.00,Acu-Link.com,2013-03-01 13:53:00,
2013-03-01 07:08:00,31.8,12.4,30.19,WNW,292,0.0,-999.0,44,-99.99,,,0.00,Acu-Link.com,2013-03-01 14:08:00,
2013-03-01 07:23:00,34.5,11.6,30.20,West,270,3.1,-999.0,38,-99.99,,,0.00,Acu-Link.com,2013-03-01 14:23:00,
2013-03-01 07:39:00,36.3,13.2,30.22,NNE,22,2.2,-999.0,38,-99.99,,,0.00,Acu-Link.com,2013-03-01 14:39:00,
2013-03-01 07:54:00,38.5,12.6,30.22,NNE,22,3.8,-999.0,34,-99.99,,,0.00,Acu-Link.com,2013-03-01 14:54:00,
2013-03-01 08:09:00,39.2,13.2,30.23,North,0,3.1,-999.0,34,-99.99,,,0.00,Acu-Link.com,2013-03-01 15:09:00,
2013-03-01 08:24:00,40.1,13.3,30.23,NNW,337,5.8,-999.0,33,-99.99,,,0.00,Acu-Link.com,2013-03-01 15:24:00,
2013-03-01 08:39:00,41.2,12.9,30.23,WSW,247,6.3,-999.0,31,-99.99,,,0.00,Acu-Link.com,2013-03-01 15:39:00,
2013-03-01 08:55:00,42.1,13.7,30.24,West,270,5.1,-999.0,31,-99.99,,,0.00,Acu-Link.com,2013-03-01 15:55:00,
2013-03-01 09:10:00,45.0,14.6,30.23,ENE,67,7.4,-999.0,29,-99.99,,,0.00,Acu-Link.com,2013-03-01 16:10:00,
2013-03-01 09:25:00,45.3,14.2,30.22,NE,45,6.3,-999.0,28,-99.99,,,0.00,Acu-Link.com,2013-03-01 16:25:00,
2013-03-01 09:40:00,46.8,15.4,30.22,ENE,67,5.8,-999.0,28,-99.99,,,0.00,Acu-Link.com,2013-03-01 16:40:00,
2013-03-01 09:55:00,48.2,15.8,30.21,ESE,112,8.3,-999.0,27,-99.99,,,0.00,Acu-Link.com,2013-03-01 16:55:00,
2013-03-01 10:11:00,49.1,16.6,30.22,NNW,337,5.1,-999.0,27,-99.99,,,0.00,Acu-Link.com,2013-03-01 17:11:00,
2013-03-01 10:26:00,49.8,16.3,30.22,NNW,337,11.4,-999.0,26,-99.99,,,0.00,Acu-Link.com,2013-03-01 17:26:00,
2013-03-01 10:41:00,51.6,17.9,30.21,NW,315,13.0,-999.0,26,-99.99,,,0.00,Acu-Link.com,2013-03-01 17:41:00,
2013-03-01 10:56:00,51.4,16.8,30.21,NNW,337,9.8,-999.0,25,-99.99,,,0.00,Acu-Link.com,2013-03-01 17:56:00,
2013-03-01 11:11:00,53.2,17.4,30.20,East,90,9.4,-999.0,24,-99.99,,,0.00,Acu-Link.com,2013-03-01 18:11:00,
2013-03-01 11:27:00,54.0,18.0,30.20,NNW,337,5.1,-999.0,24,-99.99,,,0.00,Acu-Link.com,2013-03-01 18:27:00,
2013-03-01 11:42:00,55.0,18.9,30.20,WNW,292,8.3,-999.0,24,-99.99,,,0.00,Acu-Link.com,2013-03-01 18:42:00,
2013-03-01 11:57:00,56.3,19.0,30.19,NNE,22,4.3,-999.0,23,-99.99,,,0.00,Acu-Link.com,2013-03-01 18:57:00,
2013-03-01 12:12:00,56.7,19.3,30.19,SW,225,8.9,-999.0,23,-99.99,,,0.00,Acu-Link.com,2013-03-01 19:12:00,
2013-03-01 12:28:00,57.2,19.8,30.17,NW,315,5.8,-999.0,23,-99.99,,,0.00,Acu-Link.com,2013-03-01 19:28:00,
2013-03-01 12:43:00,58.3,19.6,30.16,WNW,292,6.7,-999.0,22,-99.99,,,0.00,Acu-Link.com,2013-03-01 19:43:00,
2013-03-01 12:58:00,58.6,19.9,30.15,West,270,4.7,-999.0,22,-99.99,,,0.00,Acu-Link.com,2013-03-01 19:58:00,
2013-03-01 13:13:00,59.2,19.3,30.14,West,270,8.9,-999.0,21,-99.99,,,0.00,Acu-Link.com,2013-03-01 20:13:00,
2013-03-01 13:28:00,59.0,19.1,30.13,WNW,292,4.3,-999.0,21,-99.99,,,0.00,Acu-Link.com,2013-03-01 20:28:00,
2013-03-01 13:44:00,59.5,19.6,30.13,WNW,292,8.3,-999.0,21,-99.99,,,0.00,Acu-Link.com,2013-03-01 20:44:00,
2013-03-01 13:59:00,61.2,19.8,30.12,WNW,292,10.3,-999.0,20,-99.99,,,0.00,Acu-Link.com,2013-03-01 20:59:00,
2013-03-01 14:14:00,61.0,19.6,30.12,West,270,8.9,-999.0,20,-99.99,,,0.00,Acu-Link.com,2013-03-01 21:14:00,
2013-03-01 14:29:00,61.5,20.1,30.11,WSW,247,9.4,-999.0,20,-99.99,,,0.00,Acu-Link.com,2013-03-01 21:29:00,
2013-03-01 14:44:00,61.2,19.8,30.12,NNW,337,6.3,-999.0,20,-99.99,,,0.00,Acu-Link.com,2013-03-01 21:44:00,
2013-03-01 15:00:00,61.5,20.1,30.11,West,270,7.8,-999.0,20,-99.99,,,0.00,Acu-Link.com,2013-03-01 22:00:00,
2013-03-01 15:15:00,61.7,20.2,30.10,WSW,247,6.7,-999.0,20,-99.99,,,0.00,Acu-Link.com,2013-03-01 22:15:00,
2013-03-01 15:30:00,61.7,20.2,30.10,NW,315,7.8,-999.0,20,-99.99,,,0.00,Acu-Link.com,2013-03-01 22:30:00,
2013-03-01 15:45:00,62.4,20.8,30.09,WSW,247,13.4,-999.0,20,-99.99,,,0.00,Acu-Link.com,2013-03-01 22:45:00,
2013-03-01 16:00:00,61.9,20.4,30.09,West,270,7.4,-999.0,20,-99.99,,,0.00,Acu-Link.com,2013-03-01 23:00:00,
2013-03-01 16:16:00,61.5,20.1,30.09,NW,315,7.8,-999.0,20,-99.99,,,0.00,Acu-Link.com,2013-03-01 23:16:00,
2013-03-01 16:31:00,61.2,20.9,30.09,NNW,337,9.4,-999.0,21,-99.99,,,0.00,Acu-Link.com,2013-03-01 23:31:00,
2013-03-01 16:46:00,61.0,20.8,30.09,WNW,292,9.4,-999.0,21,-99.99,,,0.00,Acu-Link.com,2013-03-01 23:46:00,
2013-03-01 17:01:00,60.8,21.7,30.09,WNW,292,6.3,-999.0,22,-99.99,,,0.00,Acu-Link.com,2013-03-02 00:01:00,
2013-03-01 17:17:00,59.7,20.8,30.10,NNW,337,6.7,-999.0,22,-99.99,,,0.00,Acu-Link.com,2013-03-02 00:17:00,
2013-03-01 17:32:00,58.8,21.1,30.10,West,270,7.4,-999.0,23,-99.99,,,0.00,Acu-Link.com,2013-03-02 00:32:00,
2013-03-01 17:47:00,57.7,21.2,30.10,NW,315,5.8,-999.0,24,-99.99,,,0.00,Acu-Link.com,2013-03-02 00:47:00,
2013-03-01 18:02:00,55.9,21.6,30.11,West,270,9.8,-999.0,26,-99.99,,,0.00,Acu-Link.com,2013-03-02 01:02:00,
2013-03-01 18:17:00,55.0,20.8,30.11,NNW,337,6.7,-999.0,26,-99.99,,,0.00,Acu-Link.com,2013-03-02 01:17:00,
2013-03-01 18:33:00,54.3,21.1,30.11,WNW,292,5.1,-999.0,27,-99.99,,,0.00,Acu-Link.com,2013-03-02 01:33:00,
2013-03-01 18:48:00,53.6,21.3,30.12,NW,315,4.7,-999.0,28,-99.99,,,0.00,Acu-Link.com,2013-03-02 01:48:00,
2013-03-01 19:03:00,53.1,20.8,30.13,NNW,337,5.1,-999.0,28,-99.99,,,0.00,Acu-Link.com,2013-03-02 02:03:00,
2013-03-01 19:18:00,52.7,21.4,30.13,WNW,292,6.3,-999.0,29,-99.99,,,0.00,Acu-Link.com,2013-03-02 02:18:00,
2013-03-01 19:33:00,51.6,21.2,30.13,WNW,292,5.8,-999.0,30,-99.99,,,0.00,Acu-Link.com,2013-03-02 02:33:00,
2013-03-01 19:49:00,51.1,20.7,30.14,WNW,292,4.7,-999.0,30,-99.99,,,0.00,Acu-Link.com,2013-03-02 02:49:00,
2013-03-01 20:04:00,50.0,20.6,30.14,West,270,3.8,-999.0,31,-99.99,,,0.00,Acu-Link.com,2013-03-02 03:04:00,
2013-03-01 20:19:00,49.3,20.7,30.15,NW,315,4.3,-999.0,32,-99.99,,,0.00,Acu-Link.com,2013-03-02 03:19:00,
2013-03-01 20:34:00,49.1,22.0,30.15,East,90,3.1,-999.0,34,-99.99,,,0.00,Acu-Link.com,2013-03-02 03:34:00,
2013-03-01 20:49:00,47.5,21.2,30.16,East,90,2.7,-999.0,35,-99.99,,,0.00,Acu-Link.com,2013-03-02 03:49:00,
2013-03-01 21:05:00,47.5,21.9,30.17,ENE,67,3.1,-999.0,36,-99.99,,,0.00,Acu-Link.com,2013-03-02 04:05:00,
2013-03-01 21:20:00,47.7,22.0,30.18,North,0,2.2,-999.0,36,-99.99,,,0.00,Acu-Link.com,2013-03-02 04:20:00,
2013-03-01 21:35:00,46.8,21.9,30.19,WNW,292,4.7,-999.0,37,-99.99,,,0.00,Acu-Link.com,2013-03-02 04:35:00,
2013-03-01 21:50:00,47.7,22.7,30.19,North,0,5.1,-999.0,37,-99.99,,,0.00,Acu-Link.com,2013-03-02 04:50:00,
2013-03-01 22:06:00,48.6,23.5,30.19,North,0,9.4,-999.0,37,-99.99,,,0.00,Acu-Link.com,2013-03-02 05:06:00,
2013-03-01 22:21:00,48.0,23.0,30.20,ENE,67,6.7,-999.0,37,-99.99,,,0.00,Acu-Link.com,2013-03-02 05:21:00,
2013-03-01 22:36:00,47.7,22.7,30.20,NE,45,5.1,-999.0,37,-99.99,,,0.00,Acu-Link.com,2013-03-02 05:36:00,
2013-03-01 22:51:00,46.4,22.2,30.20,WNW,292,1.6,-999.0,38,-99.99,,,0.00,Acu-Link.com,2013-03-02 05:51:00,
2013-03-01 23:06:00,47.8,23.5,30.20,NE,45,3.8,-999.0,38,-99.99,,,0.00,Acu-Link.com,2013-03-02 06:06:00,
2013-03-01 23:22:00,47.1,22.8,30.20,East,90,2.7,-999.0,38,-99.99,,,0.00,Acu-Link.com,2013-03-02 06:22:00,
2013-03-01 23:37:00,46.2,22.6,30.21,SSE,157,1.6,-999.0,39,-99.99,,,0.00,Acu-Link.com,2013-03-02 06:37:00,
2013-03-01 23:52:00,45.0,22.7,30.21,ESE,112,2.2,-999.0,41,-99.99,,,0.00,Acu-Link.com,2013-03-02 06:52:00,